Wind_Speed
39 46 52 59 66 68 67 65 64 69 81 91 98 100 99 96 93 89 84 76 71 68 69 71 71 70 66 63 60 57 56 52 49 47 50 54 55 54
35 41 47 54 62 67 67 64 62 64 71 83 93 99 99 98 94 91 87 81 75 71 69 69 70 70 68 65 62 59 56 53 51 49 50 55 57 57
32 36 43 49 57 64 65 63 61 59 63 73 84 93 96 96 94 91 88 84 79 74 71 69 70 70 69 68 65 63 59 56 53 52 51 54 57 59
28 32 38 44 51 59 62 62 60 57 58 65 76 85 91 91 89 89 90 85 82 77 72 70 70 70 69 68 67 65 62 59 56 54 53 52 55 58
25 29 34 39 46 53 58 59 58 56 55 59 70 79 85 87 86 85 87 87 83 80 75 71 70 70 69 68 68 67 65 62 59 56 54 51 51 52
23 26 31 36 41 48 53 55 54 53 52 54 64 75 80 81 81 81 83 86 85 83 79 75 71 69 69 67 66 65 64 64 62 59 56 53 51 50
21 25 29 33 38 44 48 50 49 49 50 50 59 73 80 80 77 76 78 82 84 83 81 78 73 69 67 66 64 64 64 64 63 61 59 57 53 51
20 24 28 31 35 40 43 44 44 44 45 46 54 70 82 85 80 77 78 80 82 81 80 79 76 71 68 66 64 63 63 63 63 62 60 58 57 54
19 24 28 31 33 36 39 39 39 39 40 42 48 65 83 90 84 78 79 80 80 79 78 76 75 72 70 67 65 64 63 64 64 63 62 61 59 57
19 23 28 31 32 34 35 35 34 34 35 37 42 58 78 92 91 81 78 79 79 78 77 74 73 72 69 66 65 64 63 64 64 64 63 62 60 58
18 23 28 31 32 32 33 32 31 29 30 32 36 48 68 85 93 89 79 78 80 79 76 73 72 70 69 66 64 63 62 62 62 62 62 61 60 58
16 23 28 31 32 32 31 30 28 27 26 28 32 40 55 72 87 90 84 78 78 77 74 71 70 69 68 66 63 62 61 60 60 60 59 59 58 56
14 21 27 31 32 32 31 30 28 26 25 25 28 34 46 60 74 83 84 79 76 76 73 70 68 68 67 66 64 63 61 60 59 59 58 57 57 55
11 19 26 30 32 32 31 30 28 27 25 24 26 30 38 50 62 72 79 78 75 73 71 69 65 64 64 64 63 62 61 60 58 57 57 56 56 55
7 15 23 29 31 32 32 31 29 27 26 24 25 27 32 41 51 60 69 73 73 71 69 65 62 62 61 60 61 60 59 58 58 58 57 56 55 55
3 11 19 27 31 33 33 32 30 29 26 25 24 25 29 35 44 52 59 65 69 69 66 63 62 61 58 57 58 58 58 57 56 56 56 55 56 56
2 6 15 23 29 33 33 33 31 30 28 26 25 24 26 31 38 47 53 59 64 66 65 64 62 61 58 56 57 59 57 57 56 55 55 55 57 57
8 1 9 18 26 32 34 34 33 32 30 28 26 25 25 28 34 42 50 55 59 62 63 62 61 60 60 60 57 56 56 56 57 56 56 57 58 60
17 7 2 11 21 28 34 36 35 34 32 31 29 27 27 28 32 37 45 52 57 60 61 61 60 59 59 60 59 58 57 57 57 56 57 59 60 61
29 17 6 4 14 23 31 36 37 37 35 34 32 31 30 30 31 35 40 47 54 59 61 61 59 59 58 58 58 59 60 59 59 60 60 61 61 61
37 28 17 6 6 16 25 32 37 39 38 37 36 35 34 34 33 34 38 42 49 55 58 60 59 58 57 58 59 59 58 57 57 57 57 57 56 55
41 36 28 18 6 7 17 26 34 39 41 41 40 39 38 38 37 37 38 41 46 50 54 57 58 59 58 57 56 56 55 54 52 52 51 50 49 47
43 39 35 28 19 6 6 18 27 36 41 43 44 43 43 42 42 42 41 42 44 47 51 54 56 57 57 56 55 52 50 49 47 46 44 43 42 40
Wind_Direction
242 233 227 223 220 218 218 217 219 221 220 216 215 214 214 215 216 217 217 217 218 219 221 222 221 221 221 221 221 222 225 227 229 230 228 225 225 225
241 232 226 222 219 217 217 217 217 218 220 218 216 214 214 214 215 216 216 217 218 219 220 222 222 221 221 221 221 222 223 225 227 228 229 227 226 226
239 231 225 221 217 215 215 216 216 216 217 218 217 215 214 214 215 216 216 216 217 219 220 221 222 222 221 221 221 222 223 223 224 227 228 227 228 228
236 229 223 219 216 214 213 215 215 215 215 216 216 215 213 212 214 216 217 216 217 218 219 220 221 222 222 221 221 221 223 224 224 226 227 228 229 229
230 224 219 216 213 211 211 212 214 214 215 215 215 214 212 212 211 213 216 217 217 217 217 218 220 222 222 222 222 221 223 224 226 227 228 230 230 230
223 218 214 211 209 208 209 210 212 214 215 216 214 212 208 210 209 210 213 215 217 217 217 217 219 219 220 220 221 221 223 225 226 228 230 232 231 232
216 212 208 206 205 205 206 208 211 214 215 216 213 210 206 204 205 206 209 211 214 217 217 217 218 218 218 219 220 221 222 224 226 228 230 232 233 233
209 206 202 200 200 201 203 206 209 213 216 217 214 209 204 201 198 200 205 209 211 214 216 217 218 218 218 218 218 220 222 224 226 228 230 232 233 234
206 201 198 195 195 197 199 203 207 212 216 217 215 209 205 201 196 195 199 204 207 209 212 215 216 217 218 219 218 219 221 223 225 228 230 232 233 235
204 199 195 192 192 194 196 199 204 210 215 216 215 210 206 204 201 196 195 199 203 205 208 210 213 215 216 217 218 219 221 222 224 226 229 231 234 236
203 198 193 191 191 192 194 197 201 207 212 215 214 209 207 206 206 203 199 199 202 204 206 208 210 212 214 215 216 217 219 221 224 225 228 230 234 236
203 198 193 191 191 191 192 195 198 203 207 211 212 208 206 207 207 207 204 202 202 204 205 207 209 211 212 213 214 216 218 220 223 225 228 231 233 236
204 198 195 193 192 192 192 194 197 200 203 206 208 206 204 204 207 209 208 206 205 205 206 207 208 211 213 214 214 216 218 220 222 225 228 230 233 235
205 200 198 196 195 194 193 193 195 198 199 201 202 203 202 201 203 206 208 207 206 206 207 209 210 212 214 215 216 217 219 220 223 226 228 231 233 235
207 202 200 200 198 196 195 194 195 195 196 197 197 199 200 200 199 201 204 206 206 206 207 209 210 212 214 217 219 220 222 223 225 227 229 231 233 236
211 205 203 203 202 200 198 197 196 195 194 194 192 194 197 197 197 196 199 202 205 205 205 207 208 210 212 216 218 219 221 224 226 229 230 231 233 234
3 210 206 205 205 204 202 200 198 196 195 193 190 189 191 193 195 195 195 197 201 203 204 205 208 208 209 213 219 221 221 223 225 227 228 230 232 233
19 299 211 208 207 207 205 203 201 199 197 194 190 188 187 188 191 194 194 195 197 200 202 204 207 209 210 212 215 221 222 223 224 226 227 230 232 233
28 20 239 213 210 209 208 207 204 202 199 196 193 189 187 186 187 190 193 193 194 196 198 200 203 206 209 211 214 217 220 222 223 224 225 227 230 233
31 29 20 228 214 212 211 209 207 205 202 199 196 192 189 187 186 187 190 192 193 194 196 197 200 203 206 210 214 218 219 221 223 225 227 230 233 236
31 31 29 20 224 215 213 211 210 208 205 203 200 196 193 190 188 186 187 189 191 194 196 198 200 203 207 210 213 217 220 222 224 227 229 232 235 238
31 31 31 30 21 224 216 214 212 211 209 206 204 201 197 194 192 190 189 189 190 192 195 198 201 203 206 208 210 213 217 220 223 225 228 232 234 237
29 30 31 31 28 18 228 217 214 213 212 210 207 205 202 199 196 194 193 192 192 194 195 197 200 203 205 206 207 209 212 215 218 221 224 227 230 233
Height
5350 5356 5365 5375 5387 5400 5413 5427 5438 5449 5463 5479 5495 5511 5529 5547 5564 5580 5595 5608 5621 5633 5644 5655 5667 5679 5690 5700 5709 5718 5727 5735 5743 5750 5756 5763 5770 5776
5338 5344 5351 5361 5372 5385 5399 5412 5425 5436 5448 5463 5477 5494 5512 5531 5548 5565 5580 5594 5607 5620 5631 5643 5654 5667 5679 5690 5699 5708 5716 5724 5732 5740 5746 5753 5760 5767
5327 5332 5340 5349 5359 5372 5386 5399 5412 5424 5436 5447 5461 5478 5497 5516 5533 5550 5565 5580 5594 5607 5620 5631 5643 5654 5666 5678 5689 5698 5707 5714 5722 5730 5736 5743 5750 5758
5317 5323 5330 5338 5348 5361 5374 5387 5400 5413 5424 5434 5447 5464 5483 5501 5519 5535 5551 5566 5580 5594 5607 5619 5631 5642 5654 5666 5677 5687 5697 5705 5713 5720 5727 5734 5741 5747
5310 5315 5322 5330 5340 5351 5364 5377 5390 5402 5414 5424 5436 5451 5470 5487 5505 5521 5537 5553 5567 5581 5594 5606 5619 5630 5642 5654 5665 5676 5686 5696 5705 5711 5718 5724 5731 5737
5304 5309 5316 5323 5332 5343 5355 5368 5381 5393 5404 5414 5425 5439 5457 5474 5491 5508 5523 5538 5553 5567 5581 5594 5606 5618 5631 5643 5655 5665 5675 5684 5693 5702 5709 5715 5721 5727
5300 5305 5311 5318 5327 5337 5349 5361 5372 5383 5394 5403 5412 5425 5443 5461 5479 5494 5508 5524 5539 5553 5567 5582 5596 5608 5619 5631 5642 5653 5664 5673 5683 5691 5698 5705 5711 5717
5297 5302 5308 5315 5323 5333 5344 5355 5365 5375 5384 5392 5401 5412 5428 5446 5464 5478 5494 5510 5527 5542 5555 5569 5582 5595 5607 5620 5631 5642 5652 5662 5672 5680 5687 5694 5700 5706
5296 5300 5306 5313 5321 5330 5340 5350 5359 5368 5376 5383 5390 5399 5414 5432 5450 5467 5482 5497 5513 5528 5542 5556 5569 5583 5595 5607 5618 5630 5640 5650 5660 5668 5676 5683 5690 5696
5295 5299 5305 5312 5320 5328 5337 5346 5354 5362 5369 5376 5382 5391 5402 5418 5436 5452 5468 5484 5500 5514 5529 5543 5556 5570 5583 5595 5606 5618 5628 5639 5648 5657 5664 5672 5679 5686
5295 5299 5304 5311 5318 5327 5335 5343 5351 5358 5364 5370 5376 5382 5392 5406 5422 5440 5455 5472 5488 5503 5517 5532 5545 5558 5571 5583 5595 5606 5617 5627 5636 5645 5653 5661 5668 5675
5295 5299 5304 5310 5317 5325 5333 5341 5348 5354 5360 5366 5371 5377 5385 5396 5411 5427 5444 5461 5477 5492 5507 5521 5534 5547 5559 5571 5583 5595 5605 5615 5624 5633 5642 5650 5657 5665
5295 5299 5304 5310 5317 5324 5332 5339 5346 5352 5357 5363 5367 5373 5380 5390 5402 5418 5435 5451 5468 5484 5499 5512 5525 5538 5551 5563 5573 5584 5595 5605 5614 5622 5631 5639 5646 5653
5296 5300 5304 5310 5317 5324 5331 5337 5344 5350 5356 5361 5366 5371 5377 5385 5396 5410 5427 5443 5459 5476 5491 5505 5518 5532 5543 5555 5565 5575 5585 5595 5605 5613 5621 5628 5635 5641
5297 5300 5304 5310 5316 5323 5330 5336 5343 5348 5354 5359 5364 5369 5375 5382 5392 5405 5420 5436 5452 5467 5482 5496 5509 5521 5534 5546 5557 5568 5576 5585 5593 5602 5610 5617 5624 5630
5298 5300 5304 5309 5315 5322 5329 5335 5341 5347 5353 5358 5363 5368 5374 5381 5389 5400 5413 5428 5444 5458 5472 5486 5498 5511 5523 5534 5545 5556 5565 5574 5582 5590 5598 5606 5612 5618
5300 5301 5304 5308 5314 5320 5327 5333 5340 5346 5351 5357 5362 5367 5373 5379 5387 5396 5407 5421 5435 5450 5463 5476 5488 5501 5513 5524 5533 5543 5553 5561 5570 5578 5586 5594 5601 5606
5303 5303 5304 5307 5312 5318 5325 5331 5338 5344 5350 5356 5361 5366 5372 5377 5384 5393 5402 5414 5428 5442 5455 5468 5480 5492 5504 5513 5521 5531 5540 5549 5558 5566 5574 5581 5588 5595
5307 5305 5305 5307 5310 5315 5321 5328 5335 5341 5348 5354 5360 5365 5371 5377 5383 5390 5399 5409 5421 5434 5447 5460 5472 5483 5493 5503 5511 5519 5528 5537 5546 5554 5562 5569 5576 5583
5312 5308 5307 5307 5309 5313 5318 5324 5331 5338 5345 5351 5358 5364 5370 5376 5382 5388 5396 5404 5415 5426 5438 5450 5462 5473 5484 5494 5503 5510 5518 5526 5535 5542 5550 5557 5564 5571
5319 5314 5310 5308 5309 5311 5315 5320 5327 5334 5341 5348 5355 5361 5368 5374 5381 5387 5394 5402 5411 5421 5431 5442 5453 5464 5474 5483 5491 5499 5507 5515 5523 5532 5539 5546 5553 5560
5327 5321 5315 5312 5310 5310 5312 5316 5322 5329 5336 5343 5350 5357 5364 5371 5378 5385 5392 5400 5408 5417 5426 5436 5445 5454 5463 5472 5481 5489 5498 5506 5514 5522 5530 5537 5544 5551
5335 5328 5322 5317 5313 5311 5311 5313 5317 5323 5330 5337 5345 5352 5360 5367 5375 5382 5389 5397 5404 5413 5421 5430 5439 5447 5455 5464 5472 5480 5489 5497 5505 5513 5521 5527 5535 5541